Orbital Elements at Epoch 2457280.5 (2015-Sep-15.0) TDB
Reference: JPL 11 (heliocentric ecliptic J2000)
Element | Value | Uncertainty (1-sigma) | Units |
e | .300511259198777 | 1.5437e-06 | |
a | 3.568116015942055 | 9.787e-07 | au |
q | 2.495856979023984 | 4.8574e-06 | au |
i | 5.498796979791869 | 7.9571e-05 | deg |
node | 331.8155945540785 | 0.00045067 | deg |
peri | 256.2606882242893 | 0.0010754 | deg |
M | 255.7554662087082 | 0.000679 | deg |
tp | 2457993.365616176798 (2017-Aug-27.86561618) | 0.0043602 | TDB |
period | 2461.823296533227 6.74 | 0.0010129 2.773e-06 | d yr |
n | .1462330787538476 | 6.0165e-08 | deg/d |
Q | 4.640375052860125 | 1.2728e-06 | au |
|
| | Orbit Determination Parameters
Additional Information
|